This is the latest recevied weather packets stored in our database for station/object KA3RQR. If no packets are shown the sender has not sent any weather packets the latest 1 day(s).
| Time | Temp. | Humidity | Pressure | Rain* | Wind** | Luminosity | Snow |
|---|---|---|---|---|---|---|---|
| 1778037440 | 22.22° C | 51% | 1011.2 hPa | 0 mm | 1.34 m/s, 120° | 0 W/m² | - |
| 1778037138 | 22.22° C | 51% | 1010.9 hPa | 0 mm | 0.45 m/s, 158° | 0 W/m² | - |
| 1778036836 | 22.22° C | 52% | 1011 hPa | 0 mm | 1.79 m/s, 132° | 0 W/m² | - |
| 1778036533 | 22.22° C | 51% | 1011.1 hPa | 0 mm | 1.34 m/s, 171° | 0 W/m² | - |
| 1778036230 | 22.22° C | 50% | 1010.9 hPa | 0 mm | 1.79 m/s, 145° | 0 W/m² | - |
| 1778035926 | 22.22° C | 50% | 1011 hPa | 0 mm | 0.45 m/s, 150° | 0 W/m² | - |
| 1778035623 | 22.22° C | 49% | 1010.8 hPa | 0 mm | 2.24 m/s, 129° | 0 W/m² | - |
| 1778035319 | 22.22° C | 49% | 1010.9 hPa | 0 mm | 2.68 m/s, 130° | 0 W/m² | - |
| 1778035016 | 22.22° C | 48% | 1010.9 hPa | 0 mm | 1.79 m/s, 150° | 0 W/m² | - |
| 1778034714 | 22.78° C | 48% | 1011 hPa | 0 mm | 1.34 m/s, 135° | 0 W/m² | - |
| 1778034410 | 22.78° C | 47% | 1011 hPa | 0 mm | 1.79 m/s, 152° | 0 W/m² | - |
| 1778034108 | 22.78° C | 47% | 1011.1 hPa | 0 mm | 1.34 m/s, 319° | 0 W/m² | - |
| 1778033806 | 22.78° C | 46% | 1011 hPa | 0 mm | 0.89 m/s, 140° | 0 W/m² | - |
| 1778033502 | 22.78° C | 46% | 1011.1 hPa | 0 mm | 0.45 m/s, 159° | 0 W/m² | - |
| 1778033199 | 22.78° C | 46% | 1011.1 hPa | 0 mm | 0.45 m/s, 179° | 0 W/m² | - |
| 1778032897 | 22.78° C | 46% | 1011 hPa | 0 mm | 0.45 m/s, 127° | 0 W/m² | - |
| 1778032594 | 22.78° C | 44% | 1011.1 hPa | 0 mm | 2.24 m/s, 132° | 0 W/m² | - |
| 1778032291 | 23.33° C | 44% | 1011 hPa | 0 mm | 0.89 m/s, 162° | 0 W/m² | - |
| 1778031989 | 23.33° C | 43% | 1010.5 hPa | 0 mm | 2.68 m/s, 120° | 0 W/m² | - |
| 1778031685 | 23.33° C | 43% | 1011.1 hPa | 0 mm | 1.34 m/s, 142° | 0 W/m² | - |
| 1778031383 | 23.33° C | 43% | 1010.9 hPa | 0 mm | 1.34 m/s, 165° | 0 W/m² | - |
| 1778031079 | 23.33° C | 42% | 1010.9 hPa | 0 mm | 0.89 m/s, 132° | 0 W/m² | - |
| 1778030776 | 23.33° C | 41% | 1010.5 hPa | 0 mm | 0.45 m/s, 169° | 0 W/m² | - |
| 1778030472 | 23.89° C | 41% | 1010.5 hPa | 0 mm | 2.24 m/s, 195° | 0 W/m² | - |
| 1778030170 | 23.89° C | 42% | 1010.5 hPa | 0 mm | 1.34 m/s, 136° | 0 W/m² | - |
* Rain latest hour (hover to see other rain measurements)
** Current wind speed in m/s (hover to see current wind gust speed)